Regional Weather Roundup
Issued by NWS

Home | Current Version | Previous Version | Graphics & Text | Print | Product List | Glossary On
Versions: 1 2 3 4 5 6 7 8 9 10 11 12 13 14 15 16 17 18 19 20 21 22 23 24 25 26 27 28 29 30 31 32 33 34 35 36 37 38 39 40 41 42 43 44 45 46 47 48 49 50
000
ASUS43 KBIS 291059
RWRND

NORTH DAKOTA REGIONAL WEATHER ROUNDUP
NATIONAL WEATHER SERVICE BISMARCK ND
600 AM CDT FRI AUG 29 2014

NOTE: "FAIR" INDICATES FEW OR NO CLOUDS BELOW 12,000 FEET WITH NO
SIGNIFICANT WEATHER AND/OR OBSTRUCTIONS TO VISIBILITY.


NDZ001>003-009>011-017-291200-
NORTHWEST NORTH DAKOTA

CITY           SKY/WX    TMP DP  RH WIND       PRES   REMARKS
WILLISTON      MOCLDY    60  57  89 N9        29.87R
MINOT          CLEAR     63  58  83 NW12      29.78R
$$

NDZ018>021-031>035-040>046-291200-
SOUTHWEST NORTH DAKOTA

CITY           SKY/WX    TMP DP  RH WIND       PRES   REMARKS
BISMARCK       CLOUDY    64  63  96 S9        29.79F FOG
GARRISON         N/A     62  60  93 N6        29.80R
HETTINGER ARPT MOCLDY    55  53  93 SW3       29.86R
$$

NDZ004>008-012>016-024-026-027-054-291200-
NORTHEAST NORTH DAKOTA

CITY           SKY/WX    TMP DP  RH WIND       PRES   REMARKS
GRAND FORKS    CLOUDY    66  63  90 SW5       29.77S
GRND FRKS AFB  CLOUDY    66  66 100 W5        29.79S
DEVILS LAKE    CLOUDY    66  61  82 S9        29.75S
$$

NDZ022-023-025-028>030-036>039-047>053-291200-
SOUTHEAST NORTH DAKOTA

CITY           SKY/WX    TMP DP  RH WIND       PRES   REMARKS
FARGO          CLOUDY    66  65  96 S3        29.77S
JAMESTOWN      CLOUDY    64  64 100 W5        29.79S FOG
$$




USA.gov is the U.S. government's official web portal to all federal, state and local government web resources and services.